Frankfort, MI

10:31 PM EDT on May 27, 2018 (GMT -0400)
Frankfort

Weather History for KFKS - February, 2013

Change the Weather History Date:

Thursday, February 14, 2013

  Actual Average (KMBL) Record (KMBL)
Temperature  
Mean Temperature 28 °F -  
Max Temperature 34 °F 32 °F 47 °F (1967)
Min Temperature 23 °F 16 °F -6 °F (1971)
Degree Days  
Heating Degree Days 36    
Moisture  
Dew Point 29 °F    
Average Humidity 92    
Maximum Humidity 97    
Minimum Humidity 71    
Precipitation  
Precipitation 0.00 in - - ()
Sea Level Pressure  
Sea Level Pressure 29.66 in    
Wind  
Wind Speed 5 mph (NNW)    
Max Wind Speed 20 mph    
Max Gust Speed 30 mph    
Visibility 3 miles    
Events Rain , Snow    
Averages and records for this station are not official NWS values.
T = Trace of Precipitation, MM = Missing Value Source: NWS Daily Summary

Daily Weather History Graph

Daily Weather History Graph

Search for Another Location

Airport or City:

Astronomy

Feb. 14, 2013 Rise Set
Actual Time 7:46 AM EST 6:12 PM EST
Civil Twilight 7:16 AM EST 6:42 PM EST
Nautical Twilight 6:41 AM EST 7:16 PM EST
Astronomical Twilight 6:08 AM EST 7:50 PM EST
Moon 9:34 AM EST (2/14) 11:29 PM EST (2/14)
Length of Visible Light 11h 26m
Length of Day
10h 26m
Waxing Crescent, 21% of the Moon is Illuminated
Feb 14
Waxing Crescent
Feb 17
First Quarter
Feb 25
Full
Mar 4
Last Quarter
Mar 11
New

Hourly Weather History & Observations

Time (EST) Temp. Windchill Dew Point Humidity Pressure Visibility Wind Dir Wind Speed Gust Speed Precip Events Conditions
12:12 AM 33.8 °F 29.6 °F 31.1 °F 90% 29.67 in 5.0 mi SSW 4.6 mph - N/A   Overcast
12:32 AM 33.8 °F 30.8 °F 31.3 °F 90% 29.67 in 5.0 mi SSW 3.5 mph - N/A   Overcast
12:52 AM 33.8 °F 30.8 °F 31.3 °F 90% 29.67 in 5.0 mi SW 3.5 mph - N/A   Overcast
1:12 AM 34.0 °F 31.0 °F 31.1 °F 89% 29.67 in 5.0 mi SW 3.5 mph - N/A   Overcast
1:33 AM 34.2 °F 29.0 °F 31.5 °F 90% 29.67 in 5.0 mi SW 5.8 mph - N/A   Light Drizzle
1:53 AM 34.0 °F 31.0 °F 31.5 °F 90% 29.67 in 5.0 mi SW 3.5 mph - N/A Rain Light Rain
2:13 AM 34.7 °F 30.6 °F 31.6 °F 89% 29.66 in 5.0 mi SW 4.6 mph - N/A Rain Light Rain
2:33 AM 34.2 °F 31.2 °F 31.8 °F 91% 29.66 in 4.0 mi SW 3.5 mph - N/A Rain Light Rain
2:53 AM 34.2 °F 31.2 °F 32.0 °F 92% 29.66 in 4.0 mi WSW 3.5 mph - N/A Rain Light Rain
3:13 AM 34.3 °F - 32.0 °F 91% 29.65 in 5.0 mi Calm Calm - N/A Rain Rain
3:33 AM 34.2 °F 30.0 °F 32.0 °F 92% 29.65 in 5.0 mi SSW 4.6 mph - N/A Rain Rain
3:54 AM 33.8 °F 30.8 °F 32.0 °F 93% 29.64 in 5.0 mi SSW 3.5 mph - N/A Rain Light Rain
4:14 AM 33.8 °F - 32.0 °F 93% 29.64 in 5.0 mi Calm Calm - N/A Rain Light Rain
4:34 AM 33.6 °F - 32.0 °F 94% 29.63 in 4.0 mi Calm Calm - N/A Rain Light Rain
4:54 AM 33.3 °F 30.2 °F 32.0 °F 95% 29.63 in 3.0 mi SSE 3.5 mph - N/A Rain Light Rain
5:14 AM 32.9 °F 29.8 °F 32.0 °F 96% 29.63 in 3.0 mi ESE 3.5 mph - N/A   Light Drizzle
5:34 AM 32.4 °F 29.1 °F 31.5 °F 96% 29.63 in 1.8 mi SE 3.5 mph - N/A Rain Light Rain
5:54 AM 32.2 °F 28.9 °F 31.5 °F 97% 29.63 in 1.5 mi SE 3.5 mph - N/A Snow Light Snow
6:14 AM 32.2 °F 28.9 °F 31.5 °F 97% 29.63 in 1.8 mi SE 3.5 mph - N/A Snow Light Snow
6:35 AM 32.2 °F - 31.5 °F 97% 29.62 in 2.0 mi Calm Calm - N/A Snow Light Snow
6:55 AM 32.2 °F 28.9 °F 31.5 °F 97% 29.61 in 1.8 mi SE 3.5 mph - N/A Snow Light Snow
7:15 AM 32.2 °F 28.9 °F 31.5 °F 97% 29.61 in 1.5 mi SE 3.5 mph - N/A Snow Light Snow
7:35 AM 32.2 °F 28.9 °F 31.5 °F 97% 29.61 in 1.2 mi SE 3.5 mph - N/A Snow Light Snow
7:55 AM 32.2 °F - 31.5 °F 97% 29.61 in 1.0 mi Calm Calm - N/A Snow Light Snow
8:15 AM 32.0 °F - 31.3 °F 97% 29.61 in 0.8 mi Calm Calm - N/A Snow Light Snow
8:35 AM 32.2 °F 28.9 °F 31.5 °F 97% 29.60 in 0.8 mi ESE 3.5 mph - N/A Snow Light Snow
8:55 AM 32.4 °F 29.1 °F 31.5 °F 96% 29.60 in 0.8 mi East 3.5 mph - N/A Snow Light Snow
9:15 AM 32.2 °F - 31.1 °F 96% 29.60 in 0.8 mi Calm Calm - N/A Snow Light Snow
9:36 AM 32.5 °F - 31.6 °F 96% 29.59 in 1.5 mi Calm Calm - N/A Snow Light Snow
10:16 AM 32.9 °F - 31.6 °F 95% 29.58 in 2.5 mi Calm Calm - N/A Snow Light Snow
10:36 AM 33.3 °F - 32.0 °F 95% 29.58 in 3.0 mi Calm Calm - N/A   Overcast
10:51 AM 33.4 °F - 32.0 °F 94% 29.57 in 3.0 mi Calm Calm - N/A   Overcast
11:11 AM 33.1 °F - 31.6 °F 94% 29.57 in 2.5 mi Calm Calm - N/A   Overcast
11:31 AM 33.3 °F 28.9 °F 32.0 °F 95% 29.57 in 2.5 mi NE 4.6 mph - N/A   Overcast
11:51 AM 33.3 °F 28.9 °F 32.0 °F 95% 29.57 in 2.5 mi NE 4.6 mph - N/A   Overcast
12:12 PM 33.4 °F 29.1 °F 32.0 °F 94% 29.57 in 2.5 mi NE 4.6 mph - N/A Rain Light Rain
12:32 PM 33.3 °F 30.2 °F 31.8 °F 94% 29.57 in 0.8 mi NNE 3.5 mph - N/A Snow Light Snow
12:52 PM 32.9 °F - 31.8 °F 96% 29.56 in 1.0 mi Calm Calm - N/A Snow Light Snow
1:12 PM 32.9 °F 28.5 °F 32.0 °F 96% 29.56 in 2.5 mi NNE 4.6 mph - N/A Rain Light Rain
1:32 PM 33.1 °F 28.7 °F 32.0 °F 96% 29.56 in 2.0 mi NE 4.6 mph - N/A   Overcast
2:12 PM 32.9 °F - 32.0 °F 96% 29.56 in 1.0 mi Calm Calm - N/A Snow Light Snow
2:52 PM 32.9 °F 29.8 °F 31.8 °F 96% 29.57 in 1.2 mi North 3.5 mph - N/A Snow Light Snow
3:33 PM 32.5 °F 24.2 °F 31.1 °F 94% 29.59 in 2.0 mi North 10.4 mph 17.3 mph N/A Snow Light Snow
4:53 PM 32.4 °F 22.5 °F 30.9 °F 94% 29.65 in 1.5 mi NNW 13.8 mph 19.6 mph N/A Snow Light Snow
5:33 PM 32.0 °F 21.2 °F 30.0 °F 92% 29.68 in 1.2 mi North 16.1 mph 24.2 mph N/A Snow Light Snow
5:54 PM 32.0 °F 20.8 °F 29.8 °F 92% 29.70 in 0.8 mi NNW 17.3 mph 25.3 mph N/A Snow Light Snow
6:14 PM 30.7 °F 20.9 °F 28.4 °F 91% 29.72 in 1.0 mi NNW 12.7 mph 21.9 mph N/A Snow Light Snow
6:34 PM 29.7 °F 19.1 °F 27.3 °F 91% 29.74 in 1.0 mi NNW 13.8 mph 26.5 mph N/A Snow Light Snow
6:54 PM 29.3 °F 18.6 °F 26.6 °F 90% 29.76 in 1.2 mi NNW 13.8 mph 28.8 mph N/A Snow Light Snow
7:14 PM 28.4 °F 17.0 °F 25.7 °F 90% 29.78 in 1.5 mi NNW 15.0 mph 25.3 mph N/A Snow Light Snow
7:34 PM 28.0 °F 14.9 °F 25.0 °F 88% 29.80 in 2.5 mi NNW 19.6 mph 29.9 mph N/A Snow Light Snow
7:54 PM 27.3 °F 14.4 °F 23.9 °F 87% 29.82 in 3.0 mi NNW 18.4 mph 29.9 mph N/A Snow Light Snow
8:15 PM 26.4 °F 14.5 °F 22.6 °F 86% 29.84 in 3.0 mi NNW 15.0 mph 26.5 mph N/A Snow Light Snow
8:35 PM 25.7 °F 15.7 °F 21.2 °F 83% 29.85 in 4.0 mi NNW 10.4 mph 25.3 mph N/A Snow Light Snow
8:55 PM 25.5 °F 13.8 °F 20.8 °F 82% 29.86 in 3.0 mi NNW 13.8 mph 21.9 mph N/A Snow Light Snow
10:35 PM 23.9 °F 11.2 °F 16.2 °F 72% 29.89 in 10.0 mi NNW 15.0 mph 23.0 mph N/A   Overcast
10:55 PM 23.5 °F 11.3 °F 15.3 °F 71% 29.90 in 10.0 mi NNW 13.8 mph 21.9 mph N/A   Overcast
11:16 PM 23.5 °F 10.8 °F 15.4 °F 71% 29.90 in 10.0 mi NNW 15.0 mph 19.6 mph N/A   Overcast
11:36 PM 23.5 °F 11.3 °F 15.6 °F 72% 29.90 in 10.0 mi NNW 13.8 mph 21.9 mph N/A   Overcast